owner,sensor,date,latitude,longitude,vertical_datum,direction_of_sea_water_velocity,sea_water_speed,upward_sea_water_velocity,qcFlag 
TABS,ioos:station:wmo:42050:1,2003-08-01T00:00:00Z,28.8425,-94.2433,2.0,136.9990255,29.99958666,-99999.0,'11111222,11111222,99999999' 
TABS,ioos:station:wmo:42050:1,2003-08-01T00:30:00Z,28.8425,-94.2433,2.0,145.9919679,27.99892319,-99999.0,'11111222,11111222,99999999' 
TABS,ioos:station:wmo:42050:1,2003-08-01T01:00:00Z,28.8425,-94.2433,2.0,148.9947442,19.00547816,-99999.0,'11111222,11111222,99999999' 
TABS,ioos:station:wmo:42050:1,2003-08-01T01:30:00Z,28.8425,-94.2433,2.0,151.9610765,7.998824914,-99999.0,'11133222,11111222,99999999' 
TABS,ioos:station:wmo:42050:1,2003-08-01T02:00:00Z,28.8425,-94.2433,2.0,155.010642,20.00248485,-99999.0,'11111222,11111222,99999999' 
TABS,ioos:station:wmo:42050:1,2003-08-01T02:30:00Z,28.8425,-94.2433,2.0,155.9975595,19.00322341,-99999.0,'11111222,11111222,99999999' 
TABS,ioos:station:wmo:42050:1,2003-08-01T03:00:00Z,28.8425,-94.2433,2.0,149.9909444,13.99622806,-99999.0,'11111222,11111222,99999999' 
TABS,ioos:station:wmo:42050:1,2003-08-01T03:30:00Z,28.8425,-94.2433,2.0,154.9955401,11.00106358,-99999.0,'11111222,11111222,99999999' 
TABS,ioos:station:wmo:42050:1,2003-08-01T04:00:00Z,28.8425,-94.2433,2.0,128.0155716,5.0009999,-99999.0,'11133222,11111222,99999999' 
TABS,ioos:station:wmo:42050:1,2003-08-01T04:30:00Z,28.8425,-94.2433,2.0,69.02833848,5.001299831,-99999.0,'11133222,11111222,99999999' 
TABS,ioos:station:wmo:42050:1,2003-08-01T05:00:00Z,28.8425,-94.2433,2.0,45.00010523,7.000357134,-99999.0,'11133222,11111222,99999999' 
TABS,ioos:station:wmo:42050:1,2003-08-01T05:30:00Z,28.8425,-94.2433,2.0,35.00495042,10.99982727,-99999.0,'11111222,11111222,99999999' 
TABS,ioos:station:wmo:42050:1,2003-08-01T06:00:00Z,28.8425,-94.2433,2.0,21.00338406,11.99708298,-99999.0,'11111222,11111222,99999999' 
TABS,ioos:station:wmo:42050:1,2003-08-01T06:30:00Z,28.8425,-94.2433,2.0,17.02144181,14.99692302,-99999.0,'11111222,11111222,99999999' 
TABS,ioos:station:wmo:42050:1,2003-08-01T07:00:00Z,28.8425,-94.2433,2.0,13.98738762,17.0041789,-99999.0,'11111222,11111222,99999999' 
TABS,ioos:station:wmo:42050:1,2003-08-01T07:30:00Z,28.8425,-94.2433,2.0,12.00224498,18.99523361,-99999.0,'11111222,11111222,99999999' 
TABS,ioos:station:wmo:42050:1,2003-08-01T08:00:00Z,28.8425,-94.2433,2.0,18.00024296,19.99881997,-99999.0,'11111222,11111222,99999999' 
TABS,ioos:station:wmo:42050:1,2003-08-01T08:30:00Z,28.8425,-94.2433,2.0,23.00613681,24.99825994,-99999.0,'11111222,11111222,99999999' 
TABS,ioos:station:wmo:42050:1,2003-08-01T09:00:00Z,28.8425,-94.2433,2.0,26.99560049,25.00441761,-99999.0,'11111222,11111222,99999999' 
TABS,ioos:station:wmo:42050:1,2003-08-01T09:30:00Z,28.8425,-94.2433,2.0,26.0034955,26.00224798,-99999.0,'11111222,11111222,99999999' 
TABS,ioos:station:wmo:42050:1,2003-08-01T10:00:00Z,28.8425,-94.2433,2.0,29.99646112,26.00289215,-99999.0,'11111222,11111222,99999999' 
TABS,ioos:station:wmo:42050:1,2003-08-01T10:30:00Z,28.8425,-94.2433,2.0,36.00643668,27.99918035,-99999.0,'11111222,11111222,99999999' 
TABS,ioos:station:wmo:42050:1,2003-08-01T11:00:00Z,28.8425,-94.2433,2.0,41.98259272,17.99961111,-99999.0,'11111222,11111222,99999999' 
TABS,ioos:station:wmo:42050:1,2003-08-01T11:30:00Z,28.8425,-94.2433,2.0,52.99436686,26.99807586,-99999.0,'11111222,11111222,99999999' 
TABS,ioos:station:wmo:42050:1,2003-08-01T12:00:00Z,28.8425,-94.2433,2.0,68.00224214,26.00307097,-99999.0,'11111222,11111222,99999999' 
TABS,ioos:station:wmo:42050:1,2003-08-01T12:30:00Z,28.8425,-94.2433,2.0,74.99621205,25.99624973,-99999.0,'11111222,11111222,99999999' 
TABS,ioos:station:wmo:42050:1,2003-08-01T13:00:00Z,28.8425,-94.2433,2.0,81.00117974,24.99768389,-99999.0,'11111222,11111222,99999999' 
TABS,ioos:station:wmo:42050:1,2003-08-01T13:30:00Z,28.8425,-94.2433,2.0,83.99562146,26.00265371,-99999.0,'11111222,11111222,99999999' 
TABS,ioos:station:wmo:42050:1,2003-08-01T14:00:00Z,28.8425,-94.2433,2.0,90.0,29.0,-99999.0,'11111222,11111222,99999999' 
TABS,ioos:station:wmo:42050:1,2003-08-01T14:30:00Z,28.8425,-94.2433,2.0,93.00955381,27.99861604,-99999.0,'11111222,11111222,99999999' 
TABS,ioos:station:wmo:42050:1,2003-08-01T15:00:00Z,28.8425,-94.2433,2.0,98.99444994,29.99888331,-99999.0,'11111222,11111222,99999999' 
TABS,ioos:station:wmo:42050:1,2003-08-01T15:30:00Z,28.8425,-94.2433,2.0,94.99986838,27.99653014,-99999.0,'11111222,11111222,99999999' 
TABS,ioos:station:wmo:42050:1,2003-08-01T16:00:00Z,28.8425,-94.2433,2.0,92.99381763,26.99684611,-99999.0,'11111222,11111222,99999999' 
TABS,ioos:station:wmo:42050:1,2003-08-01T16:30:00Z,28.8425,-94.2433,2.0,89.00273208,27.00409043,-99999.0,'11111222,11111222,99999999' 
TABS,ioos:station:wmo:42050:1,2003-08-01T17:00:00Z,28.8425,-94.2433,2.0,88.99249078,29.00448414,-99999.0,'11111222,11111222,99999999' 
TABS,ioos:station:wmo:42050:1,2003-08-01T17:30:00Z,28.8425,-94.2433,2.0,102.0042966,50.00348088,-99999.0,'11111222,11111222,99999999' 
TABS,ioos:station:wmo:42050:1,2003-08-01T18:00:00Z,28.8425,-94.2433,2.0,105.0038481,55.00522248,-99999.0,'11111222,11111222,99999999' 
TABS,ioos:station:wmo:42050:1,2003-08-01T18:30:00Z,28.8425,-94.2433,2.0,104.9966325,55.997216,-99999.0,'11111222,11111222,99999999' 
TABS,ioos:station:wmo:42050:1,2003-08-01T19:00:00Z,28.8425,-94.2433,2.0,105.0038481,55.00522248,-99999.0,'11111222,11111222,99999999' 
TABS,ioos:station:wmo:42050:1,2003-08-01T19:30:00Z,28.8425,-94.2433,2.0,106.9854902,23.00344322,-99999.0,'11111222,11111222,99999999' 
TABS,ioos:station:wmo:42050:1,2003-08-01T20:00:00Z,28.8425,-94.2433,2.0,107.0005871,58.99812624,-99999.0,'11111222,11111222,99999999' 
TABS,ioos:station:wmo:42050:1,2003-08-01T20:30:00Z,28.8425,-94.2433,2.0,108.0012161,60.99575887,-99999.0,'11111222,11111222,99999999' 
TABS,ioos:station:wmo:42050:1,2003-08-01T21:00:00Z,28.8425,-94.2433,2.0,110.9970215,58.99750842,-99999.0,'11111222,11111222,99999999' 
TABS,ioos:station:wmo:42050:1,2003-08-01T21:30:00Z,28.8425,-94.2433,2.0,110.0053886,56.99932982,-99999.0,'11111222,11111222,99999999' 
TABS,ioos:station:wmo:42050:1,2003-08-01T22:00:00Z,28.8425,-94.2433,2.0,110.0053886,56.99932982,-99999.0,'11111222,11111222,99999999' 
TABS,ioos:station:wmo:42050:1,2003-08-01T22:30:00Z,28.8425,-94.2433,2.0,105.0008578,50.9979176,-99999.0,'11111222,11111222,99999999' 
TABS,ioos:station:wmo:42050:1,2003-08-01T23:00:00Z,28.8425,-94.2433,2.0,107.0057179,52.99728672,-99999.0,'11111222,11111222,99999999' 
TABS,ioos:station:wmo:42050:1,2003-08-01T23:30:00Z,28.8425,-94.2433,2.0,108.0007784,53.00445736,-99999.0,'11111222,11111222,99999999' 
TABS,ioos:station:wmo:42050:1,2003-08-02T00:00:00Z,28.8425,-94.2433,2.0,107.998559,48.99775097,-99999.0,'11111222,11111222,99999999' 
TABS,ioos:station:wmo:42050:1,2003-08-02T00:30:00Z,28.8425,-94.2433,2.0,111.0012633,50.00148798,-99999.0,'11111222,11111222,99999999' 
TABS,ioos:station:wmo:42050:1,2003-08-02T01:00:00Z,28.8425,-94.2433,2.0,111.0018828,36.99782696,-99999.0,'11111222,11111222,99999999' 
TABS,ioos:station:wmo:42050:1,2003-08-02T01:30:00Z,28.8425,-94.2433,2.0,107.0079072,31.999525,-99999.0,'11111222,11111222,99999999' 
TABS,ioos:station:wmo:42050:1,2003-08-02T02:00:00Z,28.8425,-94.2433,2.0,110.9988951,47.99766765,-99999.0,'11111222,11111222,99999999' 
TABS,ioos:station:wmo:42050:1,2003-08-02T02:30:00Z,28.8425,-94.2433,2.0,112.9973505,45.99561392,-99999.0,'11111222,11111222,99999999' 
TABS,ioos:station:wmo:42050:1,2003-08-02T03:00:00Z,28.8425,-94.2433,2.0,109.9947647,46.00288904,-99999.0,'11111222,11111222,99999999' 
TABS,ioos:station:wmo:42050:1,2003-08-02T03:30:00Z,28.8425,-94.2433,2.0,108.0025716,44.00434638,-99999.0,'11111222,11111222,99999999' 
TABS,ioos:station:wmo:42050:1,2003-08-02T04:00:00Z,28.8425,-94.2433,2.0,103.9998136,41.99747731,-99999.0,'11111222,11111222,99999999' 
TABS,ioos:station:wmo:42050:1,2003-08-02T04:30:00Z,28.8425,-94.2433,2.0,98.99377137,37.99716437,-99999.0,'11111222,11111222,99999999' 
TABS,ioos:station:wmo:42050:1,2003-08-02T05:00:00Z,28.8425,-94.2433,2.0,95.00154764,38.99849356,-99999.0,'11111222,11111222,99999999' 
TABS,ioos:station:wmo:42050:1,2003-08-02T05:30:00Z,28.8425,-94.2433,2.0,92.00553129,40.00450475,-99999.0,'11111222,11111222,99999999' 
TABS,ioos:station:wmo:42050:1,2003-08-02T06:00:00Z,28.8425,-94.2433,2.0,87.00645946,35.9991236,-99999.0,'11111222,11111222,99999999' 
TABS,ioos:station:wmo:42050:1,2003-08-02T06:30:00Z,28.8425,-94.2433,2.0,79.99728454,37.99758413,-99999.0,'11111222,11111222,99999999' 
TABS,ioos:station:wmo:42050:1,2003-08-02T07:30:00Z,28.8425,-94.2433,2.0,76.99574997,39.99576103,-99999.0,'11111222,11111222,99999999' 
TABS,ioos:station:wmo:42050:1,2003-08-02T08:00:00Z,28.8425,-94.2433,2.0,75.00109886,40.9967328,-99999.0,'11111222,11111222,99999999' 
TABS,ioos:station:wmo:42050:1,2003-08-02T08:30:00Z,28.8425,-94.2433,2.0,71.99652925,41.99623793,-99999.0,'11111222,11111222,99999999' 
TABS,ioos:station:wmo:42050:1,2003-08-02T09:00:00Z,28.8425,-94.2433,2.0,71.0022565,47.0000383,-99999.0,'11111222,11111222,99999999' 
TABS,ioos:station:wmo:42050:1,2003-08-02T09:30:00Z,28.8425,-94.2433,2.0,70.99506351,47.9962634,-99999.0,'11111222,11111222,99999999' 
TABS,ioos:station:wmo:42050:1,2003-08-02T10:00:00Z,28.8425,-94.2433,2.0,66.00363061,47.99846768,-99999.0,'11111222,11111222,99999999' 
TABS,ioos:station:wmo:42050:1,2003-08-02T10:30:00Z,28.8425,-94.2433,2.0,70.99506351,47.9962634,-99999.0,'11111222,11111222,99999999' 
TABS,ioos:station:wmo:42050:1,2003-08-02T11:00:00Z,28.8425,-94.2433,2.0,80.01029538,20.00327223,-99999.0,'11111222,11111222,99999999' 
TABS,ioos:station:wmo:42050:1,2003-08-02T11:30:00Z,28.8425,-94.2433,2.0,75.00248493,47.99485389,-99999.0,'11111222,11111222,99999999' 
TABS,ioos:station:wmo:42050:1,2003-08-02T12:00:00Z,28.8425,-94.2433,2.0,81.00117974,49.99536779,-99999.0,'11111222,11111222,99999999' 
TABS,ioos:station:wmo:42050:1,2003-08-02T12:30:00Z,28.8425,-94.2433,2.0,77.99755306,49.00123468,-99999.0,'11111222,11111222,99999999' 
TABS,ioos:station:wmo:42050:1,2003-08-02T13:00:00Z,28.8425,-94.2433,2.0,80.99884956,48.00112707,-99999.0,'11111222,11111222,99999999' 
TABS,ioos:station:wmo:42050:1,2003-08-02T13:30:00Z,28.8425,-94.2433,2.0,83.00119239,48.99507934,-99999.0,'11111222,11111222,99999999' 
TABS,ioos:station:wmo:42050:1,2003-08-02T14:00:00Z,28.8425,-94.2433,2.0,82.99747518,47.00058936,-99999.0,'11111222,11111222,99999999' 
TABS,ioos:station:wmo:42050:1,2003-08-02T14:30:00Z,28.8425,-94.2433,2.0,79.99709441,45.99924021,-99999.0,'11111222,11111222,99999999' 
TABS,ioos:station:wmo:42050:1,2003-08-02T15:00:00Z,28.8425,-94.2433,2.0,77.99596819,45.00411092,-99999.0,'11111222,11111222,99999999' 
TABS,ioos:station:wmo:42050:1,2003-08-02T15:30:00Z,28.8425,-94.2433,2.0,78.00148904,46.99674244,-99999.0,'11111222,11111222,99999999' 
TABS,ioos:station:wmo:42050:1,2003-08-02T16:00:00Z,28.8425,-94.2433,2.0,79.994118,48.00008854,-99999.0,'11111222,11111222,99999999' 
TABS,ioos:station:wmo:42050:1,2003-08-02T16:30:00Z,28.8425,-94.2433,2.0,78.00148904,46.99674244,-99999.0,'11111222,11111222,99999999' 
TABS,ioos:station:wmo:42050:1,2003-08-02T17:00:00Z,28.8425,-94.2433,2.0,74.00567375,45.0020844,-99999.0,'11111222,11111222,99999999' 
TABS,ioos:station:wmo:42050:1,2003-08-02T17:30:00Z,28.8425,-94.2433,2.0,72.00297579,47.99845206,-99999.0,'11111222,11111222,99999999' 
TABS,ioos:station:wmo:42050:1,2003-08-02T18:00:00Z,28.8425,-94.2433,2.0,76.99736155,48.00075937,-99999.0,'11111222,11111222,99999999' 
TABS,ioos:station:wmo:42050:1,2003-08-02T18:30:00Z,28.8425,-94.2433,2.0,72.00144097,48.99775097,-99999.0,'11111222,11111222,99999999' 
TABS,ioos:station:wmo:42050:1,2003-08-02T19:00:00Z,28.8425,-94.2433,2.0,74.00567375,45.0020844,-99999.0,'11111222,11111222,99999999' 
TABS,ioos:station:wmo:42050:1,2003-08-02T19:30:00Z,28.8425,-94.2433,2.0,77.00445932,45.00263215,-99999.0,'11111222,11111222,99999999' 
TABS,ioos:station:wmo:42050:1,2003-08-02T20:00:00Z,28.8425,-94.2433,2.0,73.99934289,37.00357956,-99999.0,'11111222,11111222,99999999' 
TABS,ioos:station:wmo:42050:1,2003-08-02T20:30:00Z,28.8425,-94.2433,2.0,75.00095578,42.0009738,-99999.0,'11111222,11111222,99999999' 
TABS,ioos:station:wmo:42050:1,2003-08-02T21:00:00Z,28.8425,-94.2433,2.0,71.9966817,34.00493641,-99999.0,'11111222,11111222,99999999' 
TABS,ioos:station:wmo:42050:1,2003-08-02T21:30:00Z,28.8425,-94.2433,2.0,70.99210796,36.99733639,-99999.0,'11111222,11111222,99999999' 
TABS,ioos:station:wmo:42050:1,2003-08-02T22:00:00Z,28.8425,-94.2433,2.0,74.99480632,37.00167564,-99999.0,'11111222,11111222,99999999' 
TABS,ioos:station:wmo:42050:1,2003-08-02T22:30:00Z,28.8425,-94.2433,2.0,77.00411204,32.99513449,-99999.0,'11111222,11111222,99999999' 
TABS,ioos:station:wmo:42050:1,2003-08-02T23:00:00Z,28.8425,-94.2433,2.0,70.99895021,32.00381227,-99999.0,'11111222,11111222,99999999' 
TABS,ioos:station:wmo:42050:1,2003-08-02T23:30:00Z,28.8425,-94.2433,2.0,68.00006845,30.00483294,-99999.0,'11111222,11111222,99999999' 
TABS,ioos:station:wmo:42050:1,2003-08-03T00:00:00Z,28.8425,-94.2433,2.0,65.98834209,25.99997885,-99999.0,'11111222,11111222,99999999' 
TABS,ioos:station:wmo:42050:1,2003-08-03T00:30:00Z,28.8425,-94.2433,2.0,57.00350683,21.99824766,-99999.0,'11111222,11111222,99999999' 
TABS,ioos:station:wmo:42050:1,2003-08-03T01:00:00Z,28.8425,-94.2433,2.0,53.00563302,23.00005435,-99999.0,'11111222,11111222,99999999' 
TABS,ioos:station:wmo:42050:1,2003-08-03T02:00:00Z,28.8425,-94.2433,2.0,50.00241953,21.00328784,-99999.0,'11111222,11111222,99999999' 
TABS,ioos:station:wmo:42050:1,2003-08-03T02:30:00Z,28.8425,-94.2433,2.0,45.00010523,21.0010714,-99999.0,'11111222,11111222,99999999' 
TABS,ioos:station:wmo:42050:1,2003-08-03T03:00:00Z,28.8425,-94.2433,2.0,35.00495042,21.99965454,-99999.0,'11111222,11111222,99999999' 
TABS,ioos:station:wmo:42050:1,2003-08-03T03:30:00Z,28.8425,-94.2433,2.0,29.99837705,23.00122605,-99999.0,'11111222,11111222,99999999' 
TABS,ioos:station:wmo:42050:1,2003-08-03T04:00:00Z,28.8425,-94.2433,2.0,26.0034955,26.00224798,-99999.0,'11111222,11111222,99999999' 
TABS,ioos:station:wmo:42050:1,2003-08-03T04:30:00Z,28.8425,-94.2433,2.0,23.00257554,27.99600864,-99999.0,'11111222,11111222,99999999' 
TABS,ioos:station:wmo:42050:1,2003-08-03T05:00:00Z,28.8425,-94.2433,2.0,30.00482015,28.99589799,-99999.0,'11111222,11111222,99999999' 
TABS,ioos:station:wmo:42050:1,2003-08-03T05:30:00Z,28.8425,-94.2433,2.0,35.00936084,29.99781659,-99999.0,'11111222,11111222,99999999' 
TABS,ioos:station:wmo:42050:1,2003-08-03T06:00:00Z,28.8425,-94.2433,2.0,31.99999848,33.00515414,-99999.0,'11111222,11111222,99999999' 
TABS,ioos:station:wmo:42050:1,2003-08-03T06:30:00Z,28.8425,-94.2433,2.0,25.99416548,35.00067428,-99999.0,'11111222,11111222,99999999' 
TABS,ioos:station:wmo:42050:1,2003-08-03T07:00:00Z,28.8425,-94.2433,2.0,20.00387973,38.00268543,-99999.0,'11111222,11111222,99999999' 
TABS,ioos:station:wmo:42050:1,2003-08-03T07:30:00Z,28.8425,-94.2433,2.0,16.99807372,42.99836392,-99999.0,'11111222,11111222,99999999' 
TABS,ioos:station:wmo:42050:1,2003-08-03T08:00:00Z,28.8425,-94.2433,2.0,14.99787658,48.99909489,-99999.0,'11111222,11111222,99999999' 
TABS,ioos:station:wmo:42050:1,2003-08-03T09:30:00Z,28.8425,-94.2433,2.0,11.00512048,55.99979464,-99999.0,'11111222,11111222,99999999' 
TABS,ioos:station:wmo:42050:1,2003-08-03T10:00:00Z,28.8425,-94.2433,2.0,19.99497518,46.00288904,-99999.0,'11111222,11111222,99999999' 
TABS,ioos:station:wmo:42050:1,2003-08-03T10:30:00Z,28.8425,-94.2433,2.0,51.00152336,41.99898213,-99999.0,'11111222,11111222,99999999' 
TABS,ioos:station:wmo:42050:1,2003-08-03T11:00:00Z,28.8425,-94.2433,2.0,50.99978632,40.99633642,-99999.0,'11111222,11111222,99999999' 
TABS,ioos:station:wmo:42050:1,2003-08-03T11:30:00Z,28.8425,-94.2433,2.0,51.0052908,38.99881665,-99999.0,'11111222,11111222,99999999' 
TABS,ioos:station:wmo:42050:1,2003-08-03T12:00:00Z,28.8425,-94.2433,2.0,53.00052652,38.00209731,-99999.0,'11111222,11111222,99999999' 
TABS,ioos:station:wmo:42050:1,2003-08-03T12:30:00Z,28.8425,-94.2433,2.0,54.007612,35.00210422,-99999.0,'11111222,11111222,99999999' 
TABS,ioos:station:wmo:42050:1,2003-08-03T13:00:00Z,28.8425,-94.2433,2.0,58.99874117,33.99617184,-99999.0,'11111222,11111222,99999999' 
TABS,ioos:station:wmo:42050:1,2003-08-03T13:30:00Z,28.8425,-94.2433,2.0,65.99815895,31.00055645,-99999.0,'11111222,11111222,99999999' 
TABS,ioos:station:wmo:42050:1,2003-08-03T14:00:00Z,28.8425,-94.2433,2.0,68.00103964,34.99820853,-99999.0,'11111222,11111222,99999999' 
TABS,ioos:station:wmo:42050:1,2003-08-03T14:30:00Z,28.8425,-94.2433,2.0,72.00376742,37.99904209,-99999.0,'11111222,11111222,99999999' 
TABS,ioos:station:wmo:42050:1,2003-08-03T15:00:00Z,28.8425,-94.2433,2.0,74.99480632,37.00167564,-99999.0,'11111222,11111222,99999999' 
TABS,ioos:station:wmo:42050:1,2003-08-03T15:30:00Z,28.8425,-94.2433,2.0,78.00227961,33.00087878,-99999.0,'11111222,11111222,99999999' 
TABS,ioos:station:wmo:42050:1,2003-08-03T16:00:00Z,28.8425,-94.2433,2.0,84.00068233,30.99978226,-99999.0,'11111222,11111222,99999999' 
TABS,ioos:station:wmo:42050:1,2003-08-03T16:30:00Z,28.8425,-94.2433,2.0,82.99342851,30.00406639,-99999.0,'11111222,11111222,99999999' 
TABS,ioos:station:wmo:42050:1,2003-08-03T17:00:00Z,28.8425,-94.2433,2.0,90.0,28.0,-99999.0,'11111222,11111222,99999999' 
TABS,ioos:station:wmo:42050:1,2003-08-03T17:30:00Z,28.8425,-94.2433,2.0,89.00273208,27.00409043,-99999.0,'11111222,11111222,99999999' 
TABS,ioos:station:wmo:42050:1,2003-08-03T18:00:00Z,28.8425,-94.2433,2.0,87.00112063,25.99559963,-99999.0,'11111222,11111222,99999999' 
TABS,ioos:station:wmo:42050:1,2003-08-03T18:30:00Z,28.8425,-94.2433,2.0,84.00660495,24.99663377,-99999.0,'11111222,11111222,99999999' 
TABS,ioos:station:wmo:42050:1,2003-08-03T19:00:00Z,28.8425,-94.2433,2.0,71.00500518,21.99785444,-99999.0,'11111222,11111222,99999999' 
TABS,ioos:station:wmo:42050:1,2003-08-03T19:30:00Z,28.8425,-94.2433,2.0,71.99531302,24.00552645,-99999.0,'11111222,11111222,99999999' 
TABS,ioos:station:wmo:42050:1,2003-08-03T20:00:00Z,28.8425,-94.2433,2.0,66.00974013,22.99657801,-99999.0,'11111222,11111222,99999999' 
TABS,ioos:station:wmo:42050:1,2003-08-03T21:00:00Z,28.8425,-94.2433,2.0,38.9955319,23.99651016,-99999.0,'11111222,11111222,99999999' 
TABS,ioos:station:wmo:42050:1,2003-08-03T21:30:00Z,28.8425,-94.2433,2.0,10.99241329,29.00209992,-99999.0,'11111222,11111222,99999999' 
TABS,ioos:station:wmo:42050:1,2003-08-03T22:00:00Z,28.8425,-94.2433,2.0,26.99505346,30.99724665,-99999.0,'11111222,11111222,99999999' 
TABS,ioos:station:wmo:42050:1,2003-08-03T22:30:00Z,28.8425,-94.2433,2.0,27.00145234,37.00352551,-99999.0,'11111222,11111222,99999999' 
TABS,ioos:station:wmo:42050:1,2003-08-03T23:00:00Z,28.8425,-94.2433,2.0,32.00383187,36.00176801,-99999.0,'11111222,11111222,99999999' 
TABS,ioos:station:wmo:42050:1,2003-08-03T23:30:00Z,28.8425,-94.2433,2.0,32.00403759,41.00177801,-99999.0,'11111222,11111222,99999999' 
TABS,ioos:station:wmo:42050:1,2003-08-04T00:00:00Z,28.8425,-94.2433,2.0,38.00302289,43.99860225,-99999.0,'11111222,11111222,99999999' 
TABS,ioos:station:wmo:42050:1,2003-08-04T00:30:00Z,28.8425,-94.2433,2.0,41.99326697,43.00179647,-99999.0,'11111222,11111222,99999999' 
TABS,ioos:station:wmo:42050:1,2003-08-04T01:00:00Z,28.8425,-94.2433,2.0,45.00010523,43.99618393,-99999.0,'11111222,11111222,99999999' 
TABS,ioos:station:wmo:42050:1,2003-08-04T01:30:00Z,28.8425,-94.2433,2.0,54.00167421,47.99555188,-99999.0,'11111222,11111222,99999999' 
TABS,ioos:station:wmo:42050:1,2003-08-04T02:00:00Z,28.8425,-94.2433,2.0,55.99853858,49.99864098,-99999.0,'11111222,11111222,99999999' 
TABS,ioos:station:wmo:42050:1,2003-08-04T02:30:00Z,28.8425,-94.2433,2.0,57.00009645,181.0007083,-99999.0,'11144222,11111222,99999999' 
TABS,ioos:station:wmo:42050:1,2003-08-04T03:00:00Z,28.8425,-94.2433,2.0,59.00505315,44.00311353,-99999.0,'11111222,11111222,99999999' 
TABS,ioos:station:wmo:42050:1,2003-08-04T03:30:00Z,28.8425,-94.2433,2.0,59.00505315,44.00311353,-99999.0,'11111222,11111222,99999999' 
TABS,ioos:station:wmo:42050:1,2003-08-04T04:00:00Z,28.8425,-94.2433,2.0,57.00374185,41.00367057,-99999.0,'11111222,11111222,99999999' 
TABS,ioos:station:wmo:42050:1,2003-08-04T04:30:00Z,28.8425,-94.2433,2.0,53.99266446,38.00030526,-99999.0,'11111222,11111222,99999999' 
TABS,ioos:station:wmo:42050:1,2003-08-04T05:00:00Z,28.8425,-94.2433,2.0,49.99569352,38.00285516,-99999.0,'11111222,11111222,99999999' 
TABS,ioos:station:wmo:42050:1,2003-08-04T05:30:00Z,28.8425,-94.2433,2.0,50.99288056,33.99965294,-99999.0,'11111222,11111222,99999999' 
TABS,ioos:station:wmo:42050:1,2003-08-04T06:30:00Z,28.8425,-94.2433,2.0,49.99506214,31.99789056,-99999.0,'11111222,11111222,99999999' 
TABS,ioos:station:wmo:42050:1,2003-08-04T07:00:00Z,28.8425,-94.2433,2.0,54.00500908,29.99749656,-99999.0,'11111222,11111222,99999999' 
TABS,ioos:station:wmo:42050:1,2003-08-04T07:30:00Z,28.8425,-94.2433,2.0,50.99425132,29.9968415,-99999.0,'11111222,11111222,99999999' 
TABS,ioos:station:wmo:42050:1,2003-08-04T08:00:00Z,28.8425,-94.2433,2.0,53.00373449,28.99807063,-99999.0,'11111222,11111222,99999999' 
TABS,ioos:station:wmo:42050:1,2003-08-04T08:30:00Z,28.8425,-94.2433,2.0,53.00373449,28.99807063,-99999.0,'11111222,11111222,99999999' 
TABS,ioos:station:wmo:42050:1,2003-08-04T09:00:00Z,28.8425,-94.2433,2.0,56.99862768,30.00035333,-99999.0,'11111222,11111222,99999999' 
TABS,ioos:station:wmo:42050:1,2003-08-04T09:30:00Z,28.8425,-94.2433,2.0,57.00603087,28.99631873,-99999.0,'11111222,11111222,99999999' 
TABS,ioos:station:wmo:42050:1,2003-08-04T10:00:00Z,28.8425,-94.2433,2.0,54.00035367,32.00169058,-99999.0,'11111222,11111222,99999999' 
TABS,ioos:station:wmo:42050:1,2003-08-04T10:30:00Z,28.8425,-94.2433,2.0,55.99217834,27.99892319,-99999.0,'11111222,11111222,99999999' 
TABS,ioos:station:wmo:42050:1,2003-08-04T11:00:00Z,28.8425,-94.2433,2.0,61.96128698,7.998824914,-99999.0,'11133222,11111222,99999999' 
TABS,ioos:station:wmo:42050:1,2003-08-04T11:30:00Z,28.8425,-94.2433,2.0,21.00147379,25.00074399,-99999.0,'11111222,11111222,99999999' 
TABS,ioos:station:wmo:42050:1,2003-08-04T12:00:00Z,28.8425,-94.2433,2.0,69.00367125,30.00204326,-99999.0,'11111222,11111222,99999999' 
TABS,ioos:station:wmo:42050:1,2003-08-04T12:30:00Z,28.8425,-94.2433,2.0,77.00818391,31.00362882,-99999.0,'11111222,11111222,99999999' 
TABS,ioos:station:wmo:42050:1,2003-08-04T13:00:00Z,28.8425,-94.2433,2.0,84.00600488,33.99586151,-99999.0,'11111222,11111222,99999999' 
TABS,ioos:station:wmo:42050:1,2003-08-04T13:30:00Z,28.8425,-94.2433,2.0,92.99113851,32.00360136,-99999.0,'11111222,11111222,99999999' 
TABS,ioos:station:wmo:42050:1,2003-08-04T14:00:00Z,28.8425,-94.2433,2.0,98.00565988,28.00290878,-99999.0,'11111222,11111222,99999999' 
TABS,ioos:station:wmo:42050:1,2003-08-04T14:30:00Z,28.8425,-94.2433,2.0,110.9977382,28.99546516,-99999.0,'11111222,11111222,99999999' 
TABS,ioos:station:wmo:42050:1,2003-08-04T15:00:00Z,28.8425,-94.2433,2.0,110.0075354,27.99986607,-99999.0,'11111222,11111222,99999999' 
TABS,ioos:station:wmo:42050:1,2003-08-04T15:30:00Z,28.8425,-94.2433,2.0,116.99539,25.00441761,-99999.0,'11111222,11111222,99999999' 
TABS,ioos:station:wmo:42050:1,2003-08-04T16:00:00Z,28.8425,-94.2433,2.0,120.0054332,23.996008,-99999.0,'11111222,11111222,99999999' 
TABS,ioos:station:wmo:42050:1,2003-08-04T16:30:00Z,28.8425,-94.2433,2.0,122.9964932,21.99824766,-99999.0,'11111222,11111222,99999999' 
TABS,ioos:station:wmo:42050:1,2003-08-04T17:00:00Z,28.8425,-94.2433,2.0,126.0073355,19.00015263,-99999.0,'11111222,11111222,99999999' 
TABS,ioos:station:wmo:42050:1,2003-08-04T17:30:00Z,28.8425,-94.2433,2.0,128.0097828,18.99976052,-99999.0,'11111222,11111222,99999999' 
TABS,ioos:station:wmo:42050:1,2003-08-04T18:00:00Z,28.8425,-94.2433,2.0,56.99975076,49.99597784,-99999.0,'11111222,11111222,99999999' 
TABS,ioos:station:wmo:42050:1,2003-08-04T18:30:00Z,28.8425,-94.2433,2.0,113.9863903,16.99791164,-99999.0,'11111222,11111222,99999999' 
TABS,ioos:station:wmo:42050:1,2003-08-04T19:00:00Z,28.8425,-94.2433,2.0,114.0012248,14.9966663,-99999.0,'11111222,11111222,99999999' 